ONEWEB-0361 (49287 NORAD) Tracking and Keplerian Element Data

This shows tracking and keplerian element data for the satellite.

Feedback or suggestion? Click here.




ElementValue
Catalog49287
NameONEWEB-0361
Epoch Orbit354
Epoch Day339.91667824
Epoch Year2021
RAAN274.9999
Inclination87.205
Eccentricity0.0011193
Argument of Perigee90.1168
Mean Anonmoly226.1444
Mean Motion14.90978759
Decay Rate-0.00052571
L11 49287U 21090J 21339.91667824 -.00052571 00000+0 -53663-2 0 9999
L22 49287 87.2050 274.9999 0011193 90.1168 226.1444 14.90978759 3547

Live tracking and technical data element details for ONEWEB-0361 (NORAD 49287). ONEWEB-0361 can be tracked NOW for your location showing map with azimuth and elevation plus other details from your city location.

Track the satellite on the map from your city or location and see movement details for azimuth, elevation, latitude, longitude, range, height, and movement on the map or in text.







IsCatalogInMostPopularTable: catalog: 49287, numindb: 5
Update: records affected: 1



GetName: 49287 ONEWEB-0361

Hit Count: updated at: Mon, 06 Dec 2021 15:47:49 GMT